This demonstration page uses our WeatherBlox Daily Observations layout. Learn more.

38.89511, -77.03637

Hourly Observations for July 23, 2019

Temp ( °F °C ) Dew Point ( °F °C ) Humidity (%) Winds ( mph kmh ) Pressure ( in mb ) Visibility ( mi km ) Precip ( " mm )
12:52 am 00:52 Cloudy 76 24.4 68 20 77 77 S 6 9 29.77 1008 10 16.09344 0.001 0.001
1:52 am 01:52 Cloudy with Light Rain 76 24.4 69 20.6 79 79 WSW 15 24 29.77 1008 7 11.265408 0.001 0.001
1:56 am 01:56 Mostly Cloudy with Light Rain 75 23.9 70 21.1 84 84 W 18 30 29.77 1008 8 12.874752 0.001 0.001
1:58 am 01:58 Cloudy with Light Rain 74 23.3 70 21.1 88 88 W 21 33 29.77 1008 7 11.265408 0.001 0.001
2:50 am 02:50 Cloudy 72 22 66 19 83 83 NW 17 28 29.8 1009 10 16.09344 0.001 0.001
2:52 am 02:52 Cloudy 72 22.2 66 18.9 82 82 NW 15 24 29.8 1009 10 16.09344 0.001 0.001
3:52 am 03:52 Cloudy 70 21.1 64 17.8 82 82 NW 14 22 29.8 1009 10 16.09344 0.001 0.001
4:34 am 04:34 Cloudy with Light Rain 70 21.1 64 17.8 82 82 NW 10 17 29.83 1010 10 16.09344 0.001 0.001
4:52 am 04:52 Cloudy 71 21.7 65 18.3 81 81 NW 10 17 29.83 1010 10 16.09344 0.001 0.001
5:52 am 05:52 Cloudy 71 21.7 64 17.8 79 79 W 9 15 29.85 1011 10 16.09344 0 0
5:57 am 05:57 Cloudy 71 21.7 64 17.8 79 79 W 10 17 29.88 1012 10 16.09344 0 0
6:52 am 06:52 Cloudy with Light Rain 71 21.7 64 17.8 79 79 W 8 13 29.88 1012 10 16.09344 0.001 0.001
7:32 am 07:32 Cloudy with Light Rain 71 21.7 63 17.2 76 76 W 5 7 29.88 1012 10 16.09344 0.001 0.001
7:52 am 07:52 Cloudy with Light Rain 70 21.1 64 17.8 82 82 VRB 7 11 29.88 1012 10 16.09344 0.01 0.254
8:52 am 08:52 Cloudy with Light Rain 70 21.1 64 17.8 82 82 W 7 11 29.88 1012 10 16.09344 0.01 0.254
9:52 am 09:52 Cloudy with Light Rain 70 21.1 65 18.3 84 84 NW 5 7 29.88 1012 9 14.484096 0.05 1.27
10:52 am 10:52 Cloudy 72 22.2 66 18.9 82 82 W 7 11 29.88 1012 10 16.09344 0.001 0.001
11:36 am 11:36 Cloudy with Light Rain 72 22.2 66 18.9 82 82 W 5 7 29.91 1013 10 16.09344 0.001 0.001
11:52 am 11:52 Cloudy with Light Rain 72 22.2 66 18.9 82 82 WSW 6 9 29.88 1012 10 16.09344 0.001 0.001
12:52 pm 12:52 Cloudy 74 23.3 66 18.9 76 76 WSW 6 9 29.88 1012 10 16.09344 0.01 0.254
1:52 pm 13:52 Cloudy 74 23.3 65 18.3 74 74 Calm 29.88 1012 10 16.09344 0 0
2:30 pm 14:30 Mostly Cloudy 76 24.4 65 18.3 69 69 NNW 6 9 29.88 1012 10 16.09344 0 0
2:52 pm 14:52 Cloudy 75 23.9 65 18.3 71 71 N 6 9 29.85 1011 10 16.09344 0 0
3:52 pm 15:52 Mostly Cloudy 76 24.4 65 18.3 69 69 ESE 5 7 29.85 1011 10 16.09344 0 0
4:52 pm 16:52 Mostly Cloudy 77 25 63 17.2 62 62 N 7 11 29.85 1011 10 16.09344 0 0
5:52 pm 17:52 Cloudy 76 24.4 63 17.2 64 64 N 7 11 29.85 1011 10 16.09344 0 0
6:52 pm 18:52 Mostly Cloudy 75 23.9 68 20 79 79 S 3 6 29.85 1011 10 16.09344 0 0
7:52 pm 19:52 Mostly Cloudy 75 23.9 68 20 79 79 SW 3 6 29.85 1011 10 16.09344 0 0
8:52 pm 20:52 Mostly Cloudy 75 23.9 64 17.8 69 69 NE 7 11 29.85 1011 10 16.09344 0 0
9:52 pm 21:52 Mostly Cloudy 74 23.3 64 17.8 71 71 NNW 7 11 29.88 1012 10 16.09344 0 0
10:52 pm 22:52 Cloudy 73 22.8 64 17.8 74 74 NNW 8 13 29.88 1012 10 16.09344 0 0
11:52 pm 23:52 Cloudy 72 22.2 64 17.8 76 76 NNW 8 13 29.88 1012 10 16.09344 0 0

Powered by AerisWeather